Regional Weather Roundup
Issued by NWS

Home | Current Version | Previous Version | Graphics & Text | Print | Product List | Glossary On
Versions: 1 2 3 4 5 6 7 8 9 10 11 12 13 14 15 16 17 18 19 20 21 22 23 24 25 26 27 28 29 30 31 32 33 34 35 36 37 38 39 40 41 42 43 44 45 46 47 48 49 50
000
ASUS43 KLMK 202302
RWRKY
KENTUCKY REGIONAL WEATHER ROUNDUP
NATIONAL WEATHER SERVICE LOUISVILLE KY
700 PM EDT MON OCT 20 2014

NOTE "FAIR" INDICATES FEW OR NO CLOUDS BELOW 12,000 FEET
WITH NO SIGNIFICANT WEATHER AND/OR OBSTRUCTIONS TO VISIBILITY.

KYZ001>023-026-027-061>063-070>075-210000-
WESTERN AND SOUTH CENTRAL KENTUCKY

CITY           SKY/WX    TMP DP  RH WIND       PRES   REMARKS
PADUCAH        PTCLDY    69  54  58 SW7       29.93S
HENDERSON      PTCLDY    68  52  56 SW9       29.91R
OWENSBORO      PTCLDY    67  55  65 SW8       29.91R
HOPKINSVILLE   CLEAR     65  53  65 SW10      29.95R
BOWLING GREEN  CLEAR     66  50  56 SW8       29.95R
GLASGOW        NOT AVBL
$$

KYZ024-025-028>034-038-045-046-053-210000-
NORTH CENTRAL KENTUCKY

CITY           SKY/WX    TMP DP  RH WIND       PRES   REMARKS
LOUISVILLE/SDF PTCLDY    64  52  64 SW13      29.90R
LOUISVILLE/LOU CLEAR     64  52  64 SW5       29.90R
FORT KNOX      PTCLDY    64  52  64 S7        29.90R
$$

KYZ035>037-039>044-047>052-055>060-089>105-210000-
NORTHEAST KENTUCKY

CITY           SKY/WX    TMP DP  RH WIND       PRES   REMARKS
LEXINGTON      CLEAR     60  48  64 SW8       29.92R
COVINGTON      MOCLDY    62  49  62 W7        29.87R
FRANKFORT      MOCLDY    61  50  67 SW9       29.90R
$$

KYZ054-064>069-076>088-106>120-210000-
SOUTHEAST KENTUCKY

CITY           SKY/WX    TMP DP  RH WIND       PRES   REMARKS
JACKSON        CLOUDY    55  49  80 CALM      29.94S
LONDON         CLOUDY    61  46  57 SW5       29.96R
SOMERSET       CLEAR     57  45  62 SW6       29.97S
MIDDLESBORO    NOT AVBL
MONTICELLO     CLEAR     58  49  72 SW5       29.98S
$$




USA.gov is the U.S. government's official web portal to all federal, state and local government web resources and services.